Regional Weather Roundup
Issued by NWS

Home | Current Version | Previous Version | Text Only | Print | Product List | Glossary On
Versions: 1 2 3 4 5 6 7 8 9 10 11 12 13 14 15 16 17 18 19 20 21 22 23 24 25 26 27 28 29 30 31 32 33 34 35 36 37 38 39 40 41 42 43 44 45 46 47 48 49 50
000
ASUS46 KSEW 061310
RWRWA

WASHINGTON REGIONAL WEATHER ROUNDUP
NATIONAL WEATHER SERVICE SEATTLE WA
600 AM PDT WED MAY 06 2015

NOTE:"FAIR" INDICATES FEW OR NO CLOUDS BELOW 12,000 FEET WITH NO
SIGNIFICANT WEATHER AND/OR OBSTRUCTIONS TO VISIBILITY.

WAZ505-507>509-061400-
SEATTLE, TACOMA, EVERETT, AND VICINITY

CITY           SKY/WX    TMP DP  RH WIND       PRES   REMARKS
EVERETT        CLOUDY    43  38  82 SE3       30.11S
BOEING FIELD   PTCLDY    48  43  82 SE3       30.12R
RENTON         CLOUDY    43  40  89 VRB3      30.12S
SEATAC AIRPORT MOCLDY    46  44  93 CALM      30.11S
JBLM-MCCHORD   PTCLDY    42  42 100 NW3       30.11S
PUYALLUP       CLOUDY    43  43 100 CALM      30.10S FOG
BREMERTON        N/A     36  36 100 CALM      30.13S
JBLM-FT LEWIS  NOT AVBL
TACOMA NARROWS FOG       42  42 100 CALM      30.12R VSB 3/4
$$

WAZ001-503-506-510-514-515-061400-
NORTH INTERIOR

CITY           SKY/WX    TMP DP  RH WIND       PRES   REMARKS
BELLINGHAM     CLOUDY    41  41 100 CALM      30.11R
FRIDAY HARBOR  CLOUDY    39  39 100 CALM      30.12S
EASTSOUND      CLOUDY    46  45  93 CALM      30.09S
PORT ANGELES   CLEAR     43  37  79 W12       30.12R
NAS WHIDBEY    CLOUDY    49  44  83 E3        30.12R
ARLINGTON      MOCLDY    39  34  81 CALM      30.13S VSB 3/4
BURLINGTON     CLEAR     41  41 100 CALM      30.12R
$$

WAZ020-022-039-040-504-511-512-061400-
SOUTHWEST INTERIOR

CITY           SKY/WX    TMP DP  RH WIND       PRES   REMARKS
SHELTON        FOG       33  33 100 CALM      30.10S VSB 1/2
OLYMPIA        FOG       40  40 100 CALM      30.12S VSB 1/4
CHEHALIS       FOG       43  43 100 NE5       30.12R VSB<1/4
KELSO          CLOUDY    46  43  87 CALM      30.15R
VANCOUVER      CLOUDY    48  43  82 CALM      30.10F
SCAPPOOSE, OR  CLOUDY    45  43  93 CALM      30.10S
PORTLAND, OR   DRIZZLE   48  44  86 CALM      30.11S
$$

WAZ021-516-517-061400-
WASHINGTON COAST

CITY           SKY/WX    TMP DP  RH WIND       PRES   REMARKS
FORKS          MOCLDY    37  37 100 E5        30.14R
HOQUIAM        FOG       39  38  96 NE5       30.13R VSB<1/4
ASTORIA, OR    PTCLDY    43  42  97 S3        30.10F
$$

WAZ019-023-024-040-518-519-061400-
CASCADE MOUNTAINS AND COLUMBIA GORGE

CITY           SKY/WX    TMP DP  RH WIND       PRES   REMARKS
TROUTDALE, OR  CLOUDY    47  44  90 SE3       30.10S
THE DALLES, OR CLOUDY    49  39  68 W9        30.05S
$$

WAZ026-027-041>044-520-521-061400-
EAST SLOPES

CITY           SKY/WX    TMP DP  RH WIND       PRES   REMARKS
OMAK           CLEAR     37  26  64 NW10      30.00S
WENATCHEE      CLEAR     43  29  57 NW8       30.00S
ELLENSBURG     CLEAR     41  31  67 NW14      29.99S
YAKIMA         PTCLDY    32  26  78 W6        30.01S
$$

WAZ028-034-035-061400-
COLUMBIA BASIN

CITY           SKY/WX    TMP DP  RH WIND       PRES   REMARKS
EPHRATA        CLEAR     43  26  51 N8        29.96S
MOSES LAKE     CLEAR     38  25  59 NW5       29.98R
PASCO          CLEAR     35  30  82 CALM      30.02S
HERMISTON, OR  CLEAR     41  34  76 SW9       30.01F
$$

WAZ036>038-061400-
NORTHEAST WASHINGTON

CITY           SKY/WX    TMP DP  RH WIND       PRES   REMARKS
SPOKANE GEIGER PTCLDY    38  25  59 SW5       29.96R
SPOKANE FELTS  PTCLDY    42  27  55 CALM      29.98R
FAIRCHILD AFB  CLEAR     34  24  66 SW5       29.95R
COEURDALENE,ID PTCLDY    34  27  75 S6        29.96R
DEER PARK      CLEAR     28  26  92 N3        29.96S
$$

WAZ029>033-061400-
SOUTHEAST WASHINGTON

CITY           SKY/WX    TMP DP  RH WIND       PRES   REMARKS
PULLMAN        CLEAR     35  28  75 W6        29.99S
LEWISTON, ID   PTCLDY    41  28  60 CALM      29.99R
WALLA WALLA    CLEAR     43  33  68 S9        30.01F
PENDLETON, OR  CLEAR     42  31  64 SW3       30.01R
$$


USA.gov is the U.S. government's official web portal to all federal, state and local government web resources and services.